Torna al catalogo

ONEWEB-0327

AttivoComunicazioniPO
NORAD 49196·PAYLOAD·🇬🇧 United Kingdom

Lanciato Sep 14, 2021 da Baikonur Cosmodrome

Loading…

Prossimi Passaggi (prossime 24 ore)

TLE

AggiornatoSource: CelesTrak SupGP

Epoca: Sep 14, 2026, 20:21 UTC

1 49196C 21083L   26257.84845324 -.00001431  00000+0 -36346-2 0  2574
2 49196  87.9165 317.6428 0002328 102.6873 299.1512 13.18689301    10

Traccia ONEWEB-0327 in tempo reale con AllMySat

Download on the App Store